Location: Bennemühlen
(52.5740°N, 9.7135°E)
Time: 00:46:34
(UTC+00:00)

A-11 Canister half - Pass Details

Date: 19 February 2026
Orbit: 1512 x 1687 km, 47.2° (Epoch: 8 March)

Event Time Altitude Azimuth Distance (km) Brightness Sun altitude
Rises 20:04:07 0° 224° (SW) 4,934 11.9 -30.9°
Reaches altitude 10° 20:07:28 10° 219° (SW) 3,944 11.3 -31.4°
Enters shadow 20:14:49 41° 179° (S) 2,279 9.6 -32.4°
Maximum altitude 20:16:51 45° 151° (SSE) 2,156 - -32.6°
Drops below altitude 10° 20:26:03 10° 83° (E) 3,872 - -33.9°
Sets 20:29:18 0° 78° (ENE) 4,837 - -34.3°
